SKYSAT-C5 (41772 NORAD) Tracking and Keplerian Element Data

This shows tracking and keplerian element data for the satellite.

Feedback or suggestion? Click here.




ElementValue
Catalog41772
NameSKYSAT-C5
Epoch Orbit46732
Epoch Day35.13822274
Epoch Year2025
RAAN89.8826
Inclination97.1222
Eccentricity0.0012079
Argument of Perigee143.6731
Mean Anonmoly216.5336
Mean Motion15.37021921
Decay Rate0.00017791
L11 41772U 16058C 25035.13822274 .00017791 00000+0 49166-3 0 9998
L22 41772 97.1222 89.8826 0012079 143.6731 216.5336 15.37021921467320



Live tracking and technical data element details for SKYSAT-C5 (NORAD 41772). SKYSAT-C5 can be tracked NOW for your location showing map with azimuth and elevation plus other details from your city location.







IsCatalogInMostPopularTable: catalog: 41772, numindb: 660
Update: records affected: 1



GetName: 41772 SKYSAT-C5

Hit Count: updated at: Sat, 17 May 2025 05:31:35 GMT